Regional Weather Roundup
Issued by NWS

Home | Current Version | Previous Version | Text Only | Print | Product List | Glossary On
Versions: 1 2 3 4 5 6 7 8 9 10 11 12 13 14 15 16 17 18 19 20 21 22 23 24 25 26 27 28 29 30 31 32 33 34 35 36 37 38 39 40 41 42 43 44 45 46 47 48 49 50
000
ASUS43 KTOP 281708
RWRKS

WEATHER ROUNDUP FOR KANSAS
NATIONAL WEATHER SERVICE GOODLAND KS
1200 PM CDT WED JUN 28 2017

NOTE:  "FAIR" INDICATES FEW OR NO CLOUDS BELOW 12,000 FEET WITH NO
SIGNIFICANT WEATHER AND/OR OBSTRUCTIONS TO VISIBILITY.

KSZ001>006-013>018-027>032-041>047-281800-
NORTHWEST KANSAS

CITY           SKY/WX    TMP DP  RH WIND       PRES   REMARKS
GOODLAND       SUNNY     81  52  36 N14G21    29.85R
HAYS           SUNNY     86  68  54 SW21      29.75F
HILL CITY      SUNNY     84  65  52 W8        29.77R
RUSSELL        SUNNY     87  68  52 SW23G32   29.74F
$$

KSZ061>065-074>080-084>089-281800-
SOUTHWEST KANSAS

CITY           SKY/WX    TMP DP  RH WIND       PRES   REMARKS
DODGE CITY     SUNNY     88  62  41 SW20G31   29.78F
ELKHART          N/A     84  50  30 NE36        N/A
GARDEN CITY    SUNNY     86  58  38 SW7       29.79S
GREAT BEND     MOSUNNY   87  67  51 SW25G32   29.76S
LIBERAL        SUNNY     87  58  37 W16G23    29.79F
PRATT          SUNNY     86  64  48 S22G32    29.79F
$$

KSZ066>073-081>083-090>101-281800-
SOUTHEAST KANSAS

CITY           SKY/WX    TMP DP  RH WIND       PRES   REMARKS
CHANUTE          N/A    N/A N/A N/A MISG      29.86F
COFFEYVILLE    MOSUNNY   85  70  60 S18G29    29.87F
HUTCHINSON     SUNNY     90  67  46 S25G39    29.77F
MEDICINE LODGE   N/A     90  65  43 S23G35    29.77F
NEWTON         SUNNY     85  68  56 S29G37    29.80F
PARSONS        MOSUNNY   84  69  60 S18G26    29.87F
WICHITA INTL   MOSUNNY   86  69  56 S25G35    29.80F
WICHITA JABRA  SUNNY     84  70  62 S15G31    29.80F
WICHITA MCCONL SUNNY     85  68  56 S28       29.81F
WINFIELD       MOSUNNY   86  70  58 S22G30    29.85F
$$

KSZ007>012-019>026-033>040-048>060-102>105-281800-
NORTHEAST KANSAS

CITY           SKY/WX    TMP DP  RH WIND       PRES   REMARKS
CONCORDIA      SUNNY     88  68  51 SW22G32   29.73F
EMPORIA        MOSUNNY   84  70  62 S28G40    29.80S
LAWRENCE       MOSUNNY   84  71  65 S17G29    29.80R
MANHATTAN      MOSUNNY   90  69  50 SW29G38   29.73F
MARYSVILLE     SUNNY     86  72  62 SW17G25   29.73F
OLATHE IND     SUNNY     83  70  64 S25G35    29.82S
OLATHE EXE     MOSUNNY   82  71  69 S23G32    29.82F
SALINA         SUNNY     90  68  48 S25G37    29.75F
TOPEKA BILLARD MOSUNNY   83  72  69 S17G24    29.78F
TOPEKA FORBES  MOSUNNY   86  71  60 S20       29.79S
$$




USA.gov is the U.S. government's official web portal to all federal, state and local government web resources and services.